DECAYED

FENGYUN 1C DEB, 30923 (Decayed)

Orbit data source: Space-Track

FENGYUN 1C DEB, 30923 was space debris in SSO originally from a launch on Mon, 10 May 1999 UTC launched from the Taiyaun Space Center, China (TSC). Fengyun 1C debris stems from the Chinese weather satellite Fengyun-1C, which was intentionally destroyed by a Chinese anti-satellite missile in 2007. This event dramatically increased the amount of space debris, with thousands of trackable fragments posing hazards to satellites and human spaceflight. The Fengyun 1C debris cloud has become a focal point in discussions about space sustainability and the need for international regulations to prevent the creation of new debris.

Not visible in the next 10 days
Identifier
30923, 1999-025AZM
Orbit
Decayed
Country
Flag of CNCN / PRC
Related business
Manufacturer
Unknown
Mission
Decayed spacecraft
Bus & Motor
Unknown
Mass
Unknown
Launch date (UTC)
1999-05-10 (27 years ago)
Launch vehicle
Unknown
Launch site
Taiyaun Space Center, China (TSC)
Object type
Payload
Rocket body
Debris
Shape & HBR
Unknown shape, 0.1 m
Radar Cross Section
Small (<0.1 m²)

Expand to show TLE details & history
Last TLE update: 6 months ago

TLE from 6 months ago
0 FENGYUN 1C DEB
1 30923U 99025AZM 25293.89251701  .01226953  00000-0  23511-1 0  9997
2 30923  98.8381  66.4488 0023425 297.8656  62.0215 15.44962913965618
Epoch: 2025-10-20T21:25Z
TLE epoch observation values (Epoch: 2025-10-20T21:25:13.469Z)
Latitude
-0.00005°
Longitude
75.55438°
Altitude
427.11 km
Speed
7.659 km/s
True Right ascension
04h 25m 47s
True Declination
0° 00' 00"
Sunlit
Object was in full shadow at epoch
Visualization orbit readout
Latitude
Unknown
Longitude
Unknown
Altitude
Unknown
Speed
Unknown
Apparent Right ascension
Unknown
Apparent Declination
Unknown
Sunlit
N/A
Visualization observer readout
Local Sidereal Time
13:21:41
Azimuth
Unknown
Elevation
Unknown
Doppler factor
Unknown
Orbital elements
Apogee altitude
444.432 km
Perigee altitude
412.543 km
Semi-major axis
6,806.624 km
Eccentricity
0.00234
Inclination
98.8381°
RAAN
66.4488°
Arg. of periapsis
297.8656°
True anomaly
62.25888°
Mean anomaly
62.0215°
Eccentric anomaly
62.14016°
Mean motion
3.86496 °/min
Orbital period
93.14 mins
BSTAR
0.023511
Loading maneuver chart data...
Computing Atmospheric mass density...

Documentation

Showing up to 5 results
|